Tracking 29528 objects as of 12-Sep-2024
HD Live streaming from Space Station
objects crossing your sky now

COSMOS 1417

Track COSMOS 1417 now!
10-day predictions
COSMOS 1417 is classified as:


NORAD ID: 13617
Int'l Code: 1982-102A
Perigee: 960.8 km
Apogee: 1,013.1 km
Inclination: 83.0 °
Period: 104.7 minutes
Semi major axis: 7357 km
RCS: 2.4834 m2 (large)
Launch date: October 19, 1982
Source: Commonwealth of Independent States (former USSR) (CIS)
Launch site: PLESETSK MISSILE AND SPACE COMPLEX (PKMTR)
Your satellite tracking list
Your tracking list is empty




NASA's NSSDC Master Catalog

Two Line Element Set (TLE):
1 13617U 82102A   24255.90002050  .00000181  00000-0  17135-3 0  9995
2 13617  82.9723  14.3716 0035569  64.1887  56.9887 13.75522311102517
Source of the keplerian elements: AFSPC